Location: Melizzano
(41.1500°N, 14.5000°E)
Time: 18:45:36
(UTC+00:00)

USA 245 - Pass Details

Date: 11 May 2021
Orbit: 265 x 982 km, 97.9° (Epoch: 18 June)

Event Time Altitude Azimuth Distance (km) Brightness Sun altitude
Exits shadow 19:46:25 18° 44° (NE) 748 4.0 -15.9°
Drops below altitude 10° 19:47:30 10° 18° (NNE) 1,077 5.1 -16.1°
Sets 19:49:31 0° 1° (N) 1,907 6.7 -16.4°
